[[{"header":{"parameterUnit":"m.s-1","parameterCategory":1,"la1":30.2991,"la2":30.254,"lo1":-89.0895,"lo2":-89.0444,"dy":0.0017,"dx":0.0017,"nx":28,"ny":28,"refTime":"2025-09-09T09:00:00:Z","depth":0,"parameterNumber":2,"parameterNumberName":"U-component_of_WINDS"},"data":[0,0,0,0,0,0,0,0,0,0,0,0,0,0,0,0,0,0,0,0,0,0,0,0,0,0,0,0,0,0,0,0,0,0,0,0,0,0,0,0,0,0,0,0,0,0,0,0,0,0,0,0,0,0,0,0,0,0,-2.2303,-2.2306,0,-2.2566,-2.2569,-2.2572,-2.2559,-2.2555,-2.2552,-2.2548,-2.2834,-2.2845,-2.2856,0,0,0,0,0,0,0,0,0,0,0,0,0,-2.1806,-2.1815,-2.2303,-2.2306,-2.231,-2.2566,-2.2569,-2.2573,-2.256,-2.2555,-2.2551,-2.2546,-2.283,-2.2843,-2.2857,0,0,0,0,0,0,0,0,0,0,0,0,0,-2.2041,-2.1818,-2.2302,-2.2334,-2.2339,-2.2565,-2.2569,-2.2574,-2.2561,-2.2555,-2.2549,-2.2544,-2.2826,-2.2842,-2.2859,-2.3076,0,0,-2.291,-2.2917,0,0,0,0,0,0,0,0,-2.2028,-2.206,-2.2326,-2.2332,-2.2338,-2.2523,-2.2499,-2.2743,-2.2562,-2.2477,-2.2548,-2.2541,-2.2736,-2.276,-2.2822,-2.3089,-2.3101,-2.2911,-2.2921,-2.2928,-2.2933,0,0,0,0,0,0,0,-2.2012,-2.2048,-2.2408,-2.233,-2.2337,-2.234,-2.2367,-2.2545,-2.2636,-2.2484,-2.2484,-2.2514,-2.2739,-2.2806,-2.2829,-2.3106,-2.2911,-2.2925,-2.2936,-2.2942,-2.3569,-2.3575,0,0,0,0,0,0,-2.1986,-2.2035,-2.2399,-2.2415,-2.2165,-2.2353,-2.2384,-2.247,-2.2634,-2.2653,-2.2519,-2.2512,-2.278,-2.281,-2.2839,-2.3107,-2.2928,-2.2944,-2.2954,-2.3562,-2.357,-2.3577,0,0,0,0,0,0,-2.1976,-2.2019,-2.2389,-2.2225,-2.2272,-2.2368,-2.2465,-2.2478,-2.2546,-2.266,-2.2678,-2.257,-2.2777,-2.2816,-2.3017,-2.3116,-2.2952,-2.2967,-2.3554,-2.3564,-2.3574,-2.3642,0,0,0,0,0,0,-2.1961,-2.2015,-2.2095,-2.2227,-2.2281,-2.2557,-2.2471,-2.2488,-2.2572,-2.2567,-2.2713,-2.2731,-2.2776,-2.2992,-2.3033,-2.3136,-2.298,-2.3546,-2.3559,-2.357,-2.3631,-2.3653,-2.3671,0,0,0,0,0,-2.1944,-2.2106,-2.2099,-2.2143,-2.2381,-2.2562,-2.2594,-2.2637,-2.258,-2.2664,-2.2738,-2.2727,-2.3098,-2.3012,-2.3059,-2.3169,-2.354,-2.3555,-2.3569,-2.3622,-2.3649,-2.3671,0,0,0,0,0,0,-2.1989,-2.2124,-2.2117,-2.2326,-2.2432,-2.256,-2.2666,-2.2663,-2.2792,-2.2782,-2.2835,-2.2868,-2.307,-2.314,-2.3042,-2.339,-2.3313,-2.3337,-2.3337,-2.3363,-2.3382,-2.3363,-2.2994,0,0,0,0,0,-2.2022,-2.2152,-2.2266,-2.244,-2.2493,-2.257,-2.2651,-2.2674,-2.2789,-2.2835,-2.2924,-2.304,-2.3183,-2.3277,-2.3414,-2.3641,-2.3675,-2.374,-2.376,-2.3776,-2.3798,-2.3927,-2.3958,-2.3626,-2.3626,-2.3626,0,0,-2.2095,-2.2184,-2.2264,-2.2451,-2.2536,-2.2675,-2.2609,-2.2758,-2.2864,-2.286,-2.3054,-2.3123,-2.3257,-2.3472,-2.3572,-2.3537,-2.3897,-2.3795,-2.3806,-2.382,-2.3945,-2.3976,-2.4004,-2.3636,-2.3634,-2.3633,0,0,-2.2297,-2.2376,-2.253,-2.2616,-2.2744,-2.2794,-2.2832,-2.296,-2.3004,-2.3199,-2.3199,-2.3329,-2.3573,-2.3669,-2.375,-2.399,-2.3987,-2.4034,-2.414,-2.4265,-2.4292,-2.4315,-2.4404,-2.4435,-2.4055,-2.4055,-2.4055,0,-2.2372,-2.2576,-2.2612,-2.2762,-2.2847,-2.2844,-2.3004,-2.3087,-2.3256,-2.3317,-2.3273,-2.3581,-2.3671,-2.391,-2.3968,-2.4033,-2.4082,-2.4019,-2.4284,-2.4308,-2.4331,-2.4416,-2.4449,-2.406,-2.406,-2.4059,-2.4059,0,-2.2664,-2.2806,-2.2917,-2.3074,-2.3171,-2.3325,-2.339,-2.3485,-2.35,-2.3557,-2.3758,-2.3865,-2.4026,-2.4084,-2.4103,-2.4328,-2.4303,-2.4271,-2.4195,-2.4366,-2.4448,-2.4481,-2.4068,-2.4066,-2.4064,-2.4063,0,0,-2.2904,-2.3077,-2.3118,-2.319,-2.3331,-2.3445,-2.3602,-2.3753,-2.3835,-2.3953,-2.4089,-2.4296,-2.4268,-2.436,-2.4389,-2.4499,-2.4687,-2.4455,-2.4459,-2.4497,-2.4946,-2.4971,-2.5008,-2.4684,-2.469,-2.4695,-2.4936,0,-2.3123,-2.3394,-2.3432,-2.3675,-2.3809,-2.3809,-2.3947,-2.4052,-2.411,-2.4237,-2.4303,-2.445,-2.44,-2.4455,-2.4563,-2.464,-2.4778,-2.4623,-2.4818,-2.4824,-2.4786,-2.505,-2.5076,-2.5298,-2.4968,-2.4973,-2.4977,0,-2.3415,-2.3535,-2.3789,-2.3913,-2.3971,-2.4093,-2.4237,-2.4356,-2.4477,-2.4512,-2.4614,-2.4631,-2.48,-2.4715,-2.4952,-2.4845,-2.4928,-2.4978,-2.4988,-2.501,-2.4912,-2.5082,-2.5369,-2.5404,-2.5027,-2.5023,-2.502,0,-2.3568,-2.3793,-2.3975,-2.4037,-2.4185,-2.4272,-2.4339,-2.4453,-2.4543,-2.467,-2.473,-2.4878,-2.496,-2.5076,-2.5135,-2.5066,-2.537,-2.5288,-2.5409,-2.5407,-2.5474,-2.547,-2.5782,-2.5523,-2.5522,-2.5521,-2.5521,0,-2.381,-2.3967,-2.4046,-2.4158,-2.4336,-2.4379,-2.4556,-2.4621,-2.4723,-2.4853,-2.4864,-2.4987,-2.5054,-2.5189,-2.5237,-2.5428,-2.5465,-2.5502,-2.5513,-2.5503,-2.5498,-2.5559,-2.5546,-2.553,-2.5528,-2.5527,-2.5525,0,-2.4012,-2.407,-2.4269,-2.4392,-2.4427,-2.4552,-2.4661,-2.4773,-2.4829,-2.4994,-2.5035,-2.5127,-2.5286,-2.5354,-2.5552,-2.5584,-2.5804,-2.5803,-2.5762,-2.5766,-2.5884,-2.5873,-2.6248,-2.6301,-2.6004,-2.6006,-2.6009,0,-2.4164,-2.4284,-2.4418,-2.4503,-2.4571,-2.4708,-2.4798,-2.4847,-2.4942,-2.5089,-2.5186,-2.5343,-2.5472,-2.5728,-2.5817,-2.5969,-2.5973,-2.6094,-2.5997,-2.5983,-2.598,-2.5972,-2.5987,-2.6113,-2.6116,-2.6118,-2.612,0,-2.4429,-2.4451,-2.4577,-2.4715,-2.4821,-2.4934,-2.5044,-2.5114,-2.5182,-2.5289,-2.5448,-2.5548,-2.5748,-2.5907,-2.6064,-2.6141,-2.6145,-2.615,-2.6186,-2.6178,-2.615,-2.617,-2.5813,-2.6142,-2.614,-2.6138,-2.6137,-2.6136,-2.4613,-2.472,-2.4831,-2.4973,-2.5059,-2.5162,-2.5274,-2.5342,-2.5474,-2.5637,-2.566,-2.5832,-2.5954,-2.6165,-2.6247,-2.6387,-2.6358,-2.641,-2.6424,-2.6437,-2.6445,-2.6125,-2.6416,-2.6416,-2.6415,-2.6415,-2.6414,0,-2.488,-2.4951,-2.508,-2.5231,-2.5344,-2.5331,-2.5453,-2.555,-2.5699,-2.5809,-2.5935,-2.6121,-2.6276,-2.6375,-2.6533,-2.6626,-2.6632,-2.6666,-2.6662,-2.668,-2.6461,-2.6415,-2.6659,-2.6659,-2.6658,-2.6658,-2.6658,-2.6658,-2.5033,-2.5214,-2.525,-2.5477,-2.5549,-2.5712,-2.5784,-2.5881,-2.5969,-2.6174,-2.63,-2.6361,-2.647,-2.6636,-2.6779,-2.6805,-2.6864,-2.6901,-2.6926,-2.672,-2.6695,-2.6671,-2.6628,-2.6912,-2.6912,-2.7133,-2.7135,-2.7137]},{"header":{"parameterUnit":"m.s-1","parameterCategory":1,"la1":30.2991,"la2":30.254,"lo1":-89.0895,"lo2":-89.0444,"dy":0.0017,"dx":0.0017,"nx":28,"ny":28,"refTime":"2025-09-09T09:00:00:Z","depth":0,"parameterNumber":3,"parameterNumberName":"V-component_of_WINDS"},"data":[0,0,0,0,0,0,0,0,0,0,0,0,0,0,0,0,0,0,0,0,0,0,0,0,0,0,0,0,0,0,0,0,0,0,0,0,0,0,0,0,0,0,0,0,0,0,0,0,0,0,0,0,0,0,0,0,0,0,-1.6143,-1.6143,0,-1.6128,-1.6128,-1.6128,-1.6123,-1.6123,-1.6123,-1.6123,-1.6106,-1.6105,-1.6105,0,0,0,0,0,0,0,0,0,0,0,0,0,-1.6165,-1.6165,-1.6143,-1.6143,-1.6143,-1.6129,-1.6128,-1.6128,-1.6123,-1.6123,-1.6123,-1.6123,-1.6106,-1.6105,-1.6105,0,0,0,0,0,0,0,0,0,0,0,0,0,-1.6153,-1.6164,-1.6143,-1.6139,-1.6138,-1.6129,-1.6128,-1.6128,-1.6123,-1.6123,-1.6123,-1.6123,-1.6106,-1.6105,-1.6104,-1.6097,0,0,-1.6102,-1.6102,0,0,0,0,0,0,0,0,-1.6154,-1.6153,-1.614,-1.6139,-1.6138,-1.6128,-1.6129,-1.6118,-1.6123,-1.6129,-1.6123,-1.6123,-1.6113,-1.6111,-1.6108,-1.6097,-1.6096,-1.6102,-1.6101,-1.6101,-1.6101,0,0,0,0,0,0,0,-1.6155,-1.6153,-1.6137,-1.6139,-1.6139,-1.6137,-1.6135,-1.6127,-1.612,-1.6128,-1.6128,-1.6126,-1.6112,-1.6109,-1.6108,-1.6096,-1.6102,-1.6101,-1.6101,-1.61,-1.6077,-1.6077,0,0,0,0,0,0,-1.6157,-1.6154,-1.6138,-1.6137,-1.6147,-1.6136,-1.6135,-1.6131,-1.612,-1.6119,-1.6126,-1.6126,-1.611,-1.6109,-1.6107,-1.6098,-1.6101,-1.61,-1.61,-1.6077,-1.6077,-1.6077,0,0,0,0,0,0,-1.6157,-1.6155,-1.6138,-1.6145,-1.6143,-1.6136,-1.6132,-1.6131,-1.6127,-1.6119,-1.6117,-1.6124,-1.611,-1.6108,-1.61,-1.6097,-1.61,-1.6099,-1.6077,-1.6077,-1.6077,-1.608,0,0,0,0,0,0,-1.6158,-1.6156,-1.6153,-1.6145,-1.6143,-1.6132,-1.6132,-1.613,-1.6126,-1.6126,-1.6117,-1.6115,-1.611,-1.6101,-1.6099,-1.6096,-1.6099,-1.6077,-1.6077,-1.6077,-1.608,-1.608,-1.608,0,0,0,0,0,-1.6159,-1.6154,-1.6153,-1.6151,-1.614,-1.6132,-1.6131,-1.6126,-1.6126,-1.6124,-1.6118,-1.6115,-1.6098,-1.61,-1.6098,-1.6095,-1.6077,-1.6077,-1.6077,-1.608,-1.608,-1.608,0,0,0,0,0,0,-1.6162,-1.6153,-1.6152,-1.6145,-1.614,-1.6131,-1.6128,-1.6126,-1.6119,-1.6119,-1.6113,-1.6111,-1.6103,-1.6098,-1.6101,-1.6087,-1.6087,-1.6087,-1.6091,-1.609,-1.609,-1.6091,-1.6098,0,0,0,0,0,-1.6162,-1.6157,-1.6149,-1.6144,-1.6141,-1.6135,-1.6132,-1.6129,-1.6122,-1.6119,-1.6113,-1.6106,-1.6099,-1.6095,-1.6088,-1.6079,-1.6077,-1.6076,-1.6076,-1.6076,-1.6075,-1.607,-1.6069,-1.6075,-1.6075,-1.6075,0,0,-1.6161,-1.6156,-1.6153,-1.6145,-1.614,-1.6134,-1.6133,-1.6127,-1.6123,-1.6118,-1.611,-1.6105,-1.6097,-1.6089,-1.6084,-1.6084,-1.6073,-1.6075,-1.6075,-1.6074,-1.6069,-1.6069,-1.6068,-1.6075,-1.6075,-1.6075,0,0,-1.6158,-1.6154,-1.6149,-1.6144,-1.6137,-1.6133,-1.6132,-1.6124,-1.6121,-1.6113,-1.6109,-1.6103,-1.6091,-1.6086,-1.6081,-1.6075,-1.6072,-1.6073,-1.6072,-1.6067,-1.6067,-1.6066,-1.6064,-1.6063,-1.6073,-1.6073,-1.6073,0,-1.6158,-1.615,-1.6146,-1.6141,-1.6137,-1.6133,-1.6128,-1.6123,-1.6114,-1.6111,-1.6111,-1.6096,-1.609,-1.608,-1.6078,-1.6075,-1.6073,-1.6074,-1.6067,-1.6067,-1.6066,-1.6064,-1.6063,-1.6073,-1.6073,-1.6073,-1.6073,0,-1.6151,-1.6145,-1.6142,-1.6134,-1.613,-1.6124,-1.6118,-1.6114,-1.6112,-1.6107,-1.6099,-1.6092,-1.6083,-1.608,-1.6077,-1.607,-1.607,-1.6069,-1.6069,-1.6066,-1.6063,-1.6062,-1.6073,-1.6073,-1.6073,-1.6073,0,0,-1.6149,-1.6139,-1.6138,-1.6134,-1.6126,-1.6121,-1.6115,-1.6108,-1.6104,-1.6098,-1.6092,-1.6082,-1.6081,-1.6076,-1.6072,-1.6067,-1.6063,-1.6067,-1.6066,-1.6066,-1.6053,-1.6054,-1.6053,-1.6061,-1.6061,-1.606,-1.6054,0,-1.6144,-1.6134,-1.613,-1.6122,-1.6116,-1.6113,-1.6107,-1.6101,-1.6097,-1.6091,-1.6086,-1.6079,-1.6078,-1.6075,-1.607,-1.6064,-1.606,-1.6065,-1.6054,-1.6054,-1.6057,-1.6052,-1.6053,-1.6047,-1.6053,-1.6053,-1.6053,0,-1.6137,-1.6132,-1.6123,-1.6116,-1.6113,-1.6108,-1.6101,-1.6096,-1.6088,-1.6085,-1.608,-1.6076,-1.6069,-1.607,-1.6059,-1.6062,-1.6057,-1.6054,-1.6053,-1.6052,-1.6053,-1.605,-1.6045,-1.6044,-1.6051,-1.6051,-1.6051,0,-1.6136,-1.6127,-1.612,-1.6117,-1.6108,-1.6105,-1.6101,-1.6094,-1.609,-1.6083,-1.608,-1.6072,-1.6067,-1.6061,-1.6055,-1.6056,-1.6044,-1.6045,-1.6041,-1.6041,-1.6038,-1.6038,-1.6032,-1.6036,-1.6036,-1.6036,-1.6036,0,-1.6131,-1.6126,-1.612,-1.6115,-1.6109,-1.6104,-1.6098,-1.6093,-1.6087,-1.6081,-1.6077,-1.6072,-1.6065,-1.6058,-1.6053,-1.6045,-1.6043,-1.6039,-1.6038,-1.604,-1.604,-1.6036,-1.6036,-1.6036,-1.6036,-1.6036,-1.6036,0,-1.6129,-1.6125,-1.6117,-1.611,-1.6108,-1.6103,-1.6096,-1.6092,-1.6087,-1.608,-1.6078,-1.6071,-1.6063,-1.6056,-1.6045,-1.6042,-1.6033,-1.6031,-1.6036,-1.6035,-1.6031,-1.6032,-1.6022,-1.602,-1.6026,-1.6026,-1.6026,0,-1.6126,-1.6122,-1.6114,-1.6111,-1.6107,-1.6101,-1.6097,-1.6092,-1.6087,-1.6079,-1.6075,-1.6067,-1.606,-1.6047,-1.604,-1.6031,-1.603,-1.6027,-1.6028,-1.603,-1.6029,-1.6029,-1.6029,-1.6027,-1.6027,-1.6027,-1.6027,0,-1.6121,-1.6119,-1.6114,-1.6107,-1.6103,-1.6097,-1.6091,-1.6088,-1.6082,-1.6077,-1.6069,-1.6064,-1.6053,-1.6045,-1.6035,-1.603,-1.6027,-1.6026,-1.6025,-1.6026,-1.6029,-1.6027,-1.6035,-1.6026,-1.6026,-1.6026,-1.6026,-1.6026,-1.6118,-1.6114,-1.6108,-1.6102,-1.6098,-1.6092,-1.6088,-1.6083,-1.6076,-1.6068,-1.6065,-1.6057,-1.6049,-1.6037,-1.6031,-1.6024,-1.6024,-1.6022,-1.6021,-1.6021,-1.6021,-1.603,-1.6022,-1.6022,-1.6022,-1.6022,-1.6022,0,-1.6113,-1.6109,-1.6103,-1.6096,-1.6091,-1.6089,-1.6083,-1.6078,-1.6071,-1.6065,-1.6059,-1.6049,-1.6041,-1.6034,-1.6025,-1.602,-1.6019,-1.6018,-1.6018,-1.6017,-1.6022,-1.6024,-1.602,-1.602,-1.602,-1.602,-1.602,-1.602,-1.611,-1.6103,-1.61,-1.6091,-1.6086,-1.6079,-1.6075,-1.607,-1.6065,-1.6055,-1.6049,-1.6044,-1.6037,-1.6028,-1.602,-1.6018,-1.6014,-1.6014,-1.6012,-1.6016,-1.6017,-1.6017,-1.6019,-1.6014,-1.6014,-1.6007,-1.6007,-1.6007]}]]